Regional Weather Roundup
Issued by NWS

Home | Current Version | Previous Version | Graphics & Text | Print | Product List | Glossary Off
Versions: 1 2 3 4 5 6 7 8 9 10 11 12 13 14 15 16 17 18 19 20 21 22 23 24 25 26 27 28 29 30 31 32 33 34 35 36 37 38 39 40 41 42 43 44 45 46 47 48 49 50

000
ASUS43 KTOP 211359
RWRKS

WEATHER ROUNDUP FOR KANSAS
NATIONAL WEATHER SERVICE GOODLAND KS
800 AM CST WED FEB 21 2018

NOTE:  "FAIR" INDICATES FEW OR NO CLOUDS BELOW 12,000 FEET WITH NO
SIGNIFICANT WEATHER AND/OR OBSTRUCTIONS TO VISIBILITY.

KSZ001>006-013>018-027>032-041>047-211500-
NORTHWEST KANSAS

CITY           SKY/WX    TMP DP  RH WIND       PRES   REMARKS
GOODLAND       CLEAR      2  -4  76 SW7       30.36R
HAYS           CLOUDY     3  -3  76 CALM      30.55R
HILL CITY      CLOUDY     4  -1  80 CALM      30.54R
RUSSELL        CLOUDY     8   3  80 N5        30.55R
$$

KSZ061>065-074>080-084>089-211500-
SOUTHWEST KANSAS

CITY           SKY/WX    TMP DP  RH WIND       PRES   REMARKS
DODGE CITY     CLOUDY    10   0  63 NE13      30.45S WCI  -5
GARDEN CITY    CLOUDY     8  -1  66 E8        30.45R
GREAT BEND     CLOUDY    10   3  73 N9        30.55R
LIBERAL        CLOUDY    13   2  61 N16       30.43S WCI  -3
$$

KSZ066>073-081>083-090>101-211500-
SOUTHEAST KANSAS

CITY           SKY/WX    TMP DP  RH WIND       PRES   REMARKS
CHANUTE        MOCLDY    19  14  81 N12       30.53R WCI   7
COFFEYVILLE    CLOUDY    22  19  89 N14       30.50R WCI   9
HUTCHINSON     CLOUDY    12   6  77 N13       30.53R WCI  -3
MEDICINE LODGE   N/A     15   6  67 N17G26    30.48S WCI  -1
NEWTON         CLOUDY    12   8  84 N14       30.53R WCI  -3
PARSONS        CLOUDY    21  17  84 N10       30.52R WCI  10
WICHITA INTL   CLOUDY    16  10  77 N15       30.51R WCI   1
WICHITA JABRA  CLOUDY    14  11  87 N13       30.51R WCI   0
WICHITA MCCONL CLOUDY    15  10  78 N16       30.50  WCI  -1
WINFIELD       PTCLDY    17  14  88 N14G22    30.50R WCI   3
$$

KSZ007>012-019>026-033>040-048>060-102>105-211500-
NORTHEAST KANSAS

CITY           SKY/WX    TMP DP  RH WIND       PRES   REMARKS
CONCORDIA      CLOUDY     8   2  76 N9        30.58R
EMPORIA        PTCLDY    13   8  81 N12       30.54R WCI  -1
LAWRENCE       CLOUDY    16  11  80 N10       30.58R WCI   4
MANHATTAN      CLOUDY    14   5  67 NE9       30.60R
OLATHE IND     CLOUDY    15  12  88 N13       30.55R WCI   1
OLATHE EXE     PTCLDY    15  12  88 N15       30.53R WCI   0
SALINA         CLOUDY    13   5  70 N9        30.61R
TOPEKA BILLARD CLOUDY    15  10  80 N13       30.59R WCI   1
TOPEKA FORBES  CLOUDY    15   9  76 N10       30.56R WCI   2
$$




USA.gov is the U.S. government's official web portal to all federal, state and local government web resources and services.